Location: Bartlow
(52.0833°N, 0.3167°E)
Time: 00:42:34
(UTC+00:00)

Cosmos 2333 Rocket - Visible Passes

Search period start: 24 April 2024 00:00
Search period end: 04 May 2024 00:00
Orbit: 840 x 861 km, 70.8° (Epoch: 23 April)

Date Brightness Start Highest point End Pass type
(mag) Time Alt. Az. Time Alt. Az. Time Alt. Az.
24 Apr 3.9 01:25:47 13° W 01:29:44 26° NW 01:34:26 10° NNE visible
24 Apr 4.7 03:13:53 10° NW 03:16:09 12° NNW 03:18:25 10° NNE visible
24 Apr 3.8 21:49:19 17° E 21:49:19 17° E 21:52:31 10° ENE visible
24 Apr 2.1 23:31:18 60° SSW 23:32:24 87° ESE 23:38:05 10° NNE visible
25 Apr 3.9 01:13:14 12° W 01:17:24 26° NW 01:22:06 10° NNE visible
25 Apr 4.7 03:01:34 10° NW 03:03:50 12° NNW 03:06:06 10° NNE visible
25 Apr 3.7 21:36:44 17° E 21:36:44 17° E 21:40:12 10° ENE visible
25 Apr 2.1 23:18:42 54° SSW 23:20:05 87° ESE 23:25:47 10° NNE visible
26 Apr 4.0 01:00:39 11° W 01:05:05 26° NW 01:09:48 10° NNE visible
26 Apr 4.8 02:49:15 10° NW 02:51:31 12° NNW 02:53:47 10° NNE visible
26 Apr 3.7 21:24:04 17° ESE 21:24:17 17° E 21:27:53 10° ENE visible
26 Apr 2.1 23:06:02 47° SSW 23:07:46 87° ESE 23:13:27 10° NNE visible
27 Apr 4.0 00:48:05 10° W 00:52:46 26° NW 00:57:28 10° NNE visible
27 Apr 4.8 02:36:55 10° NW 02:39:12 12° NNW 02:41:28 10° NNE visible
27 Apr 3.7 21:11:20 17° ESE 21:11:59 17° E 21:15:34 10° ENE visible
27 Apr 2.1 22:53:16 40° SSW 22:55:27 87° ESE 23:01:08 10° NNE visible
28 Apr 4.0 00:35:47 10° W 00:40:27 26° NW 00:45:09 10° NNE visible
28 Apr 4.8 02:24:36 10° NW 02:26:52 12° NNW 02:29:10 10° NNE visible
28 Apr 3.6 20:58:28 16° ESE 20:59:40 17° E 21:03:14 10° ENE visible
28 Apr 2.1 22:40:24 32° SSW 22:43:07 87° ESE 22:48:49 10° NNE visible
29 Apr 4.1 00:23:27 10° W 00:28:08 26° NW 00:32:50 10° NNE visible
29 Apr 4.9 02:12:17 10° NW 02:14:34 12° NNW 02:16:50 10° NNE visible
29 Apr 3.7 20:45:26 15° ESE 20:47:21 17° E 20:50:55 10° ENE visible
29 Apr 2.1 22:27:22 25° SSW 22:30:48 87° ESE 22:36:30 10° NNE visible
30 Apr 4.1 00:11:08 10° W 00:15:49 26° NW 00:20:31 10° NNE visible
30 Apr 4.9 01:59:58 10° NW 02:02:15 12° NNW 02:04:32 10° NNE visible
30 Apr 4.9 03:46:28 10° NNW 03:49:13 13° NNE 03:51:59 10° NE visible
30 Apr 3.7 20:32:12 12° SE 20:35:02 17° E 20:38:36 10° ENE visible
30 Apr 2.1 22:14:06 17° SSW 22:18:29 87° ESE 22:24:11 10° NNE visible
30 Apr 4.1 23:58:49 10° W 00:03:30 26° NW 00:08:12 10° NNE visible
01 May 5.0 01:47:39 10° NW 01:49:55 12° NNW 01:52:13 10° NNE visible
01 May 5.0 03:34:09 10° NNW 03:36:54 13° NNE 03:39:40 10° NE visible
01 May 3.6 20:19:09 10° SE 20:22:43 17° E 20:26:17 10° ENE visible
01 May 2.1 22:00:33 10° SSW 22:06:11 87° ESE 22:11:52 10° NNE visible
01 May 4.2 23:46:30 10° W 23:51:11 26° NW 23:55:53 10° NNE visible
02 May 5.0 01:35:19 10° NW 01:37:36 12° NNW 01:39:54 10° NNE visible
02 May 5.0 03:21:50 10° NNW 03:24:35 14° NNE 03:27:20 10° NE visible
02 May 3.6 20:06:50 10° SE 20:10:24 17° E 20:13:58 10° ENE visible
02 May 2.1 21:48:11 10° SSW 21:53:51 87° ESE 21:59:33 10° NNE visible
02 May 4.2 23:34:11 10° W 23:38:51 26° NW 23:43:35 10° NNE visible
03 May 5.0 01:23:00 10° NW 01:25:17 12° NNW 01:27:34 10° NNE visible
03 May 5.1 03:09:30 10° NNW 03:12:16 14° NNE 03:15:02 10° NE visible
03 May 2.1 21:35:53 10° SSW 21:41:33 87° ESE 21:47:14 10° NNE visible
03 May 4.3 23:21:52 10° W 23:26:32 26° NW 23:31:15 10° NNE visible
